Meath Environmental Platform

Observations for Trim Market St

Time AQI Temp °C Hum % Pres Pa CO μg/m³ H₂S μg/m³ NO μg/m³ NO₂ μg/m³ O₃ μg/m³ SO₂ μg/m³ PM1 μg/m³ PM2.5 μg/m³ PM10 μg/m³
Saturday 11 July 2026
08:01 1 25.3 46 62,429 0.02 0 0 0 0 0 0 2.64 2.9
07:59 1 25.2 46 62,027 0.16 0 0.12 0 0 0 0 2.09 2.15
07:58 1 25.1 47 61,652 0.28 0 0.58 0.59 1.12 0 0 2.6 2.93
07:57 1 25 47 61,300 0.33 0 1.21 0 0 0 0.71 3.62 3.71
07:56 1 24.9 47 60,813 0.26 0 0 0 4.87 0 0 2.57 2.95
07:55 1 24.8 47 60,375 0.22 0 0 0 5.09 0 0 2.56 2.82
07:53 1 24.6 48 59,338 0.27 0 0.46 0 0 0 0 2.54 2.98
07:51 1 24.3 48 58,600 0.16 0 0.23 0 8.43 0 0 2.01 2.21
07:49 1 24 49 57,940 0.12 0 1.69 0 2.51 0 0 1.98 2.18
07:47 1 23.8 50 57,239 0.27 0 0 0 0 0 1.43 3.49 3.8
07:46 1 23.7 50 56,722 0.27 0 0.29 0 7.61 0 0 2.44 2.69
07:36 1 22.3 54 56,618 0.21 0 0.89 0 0 0 0 2.3 2.45
07:35 1 22.2 54 56,780 0.17 0 0.51 0 8.06 0 0.71 2.79 4.64
07:34 1 22.1 54 56,934 0.22 0 0.95 0 0.26 0 0 2.78 3.92
07:33 1 22 55 57,075 0.27 0 1.2 0 0 0 0 2.76 3.94
07:32 1 21.8 55 57,290 0.25 0 2.71 0 8.72 0 0.71 2.24 2.52
07:31 1 21.7 55 57,377 0.29 0 1.42 0 4.24 0 0 2.74 3.24
07:30 1 21.6 56 57,451 0.35 0 1.86 0.82 0 0 0 1.71 1.82
07:29 1 21.5 56 57,612 0.36 0 0 1.64 15.63 0 0.71 3.23 3.97
07:27 1 21.2 56 57,601 0.23 0 0.65 0 6.43 0 0 1.68 2.57